AGJ320 LDSP-LGSK

Flight info

Callsign AGJ320
Flight time 1h 10m
Altitude 35000
Route SIPAL DCT RETRA DCT RINAV DCT MAVAR DCT TALAS UN130 TSL
Aircraft A320/M-SDE3FGHIRWY/LB1

Departure

Time 2026-04-26 14:40
Airport Split Saint Jerome Airport (LDSP)

Arrival

Time 2026-04-26 15:51
Airport Skiathos Island National Airport (LGSK)
Time Latitude Longitude Altitude Speed Heading
2026-04-26 14:14 43.53762 16.29936 68 ft 0 kts 114°
2026-04-26 14:28 43.53763 16.29936 68 ft 0 kts 114°
2026-04-26 14:33 43.53769 16.29917 62 ft 4 kts 114°
2026-04-26 14:33 43.53779 16.29884 62 ft 4 kts 108°
2026-04-26 14:34 43.53783 16.29848 63 ft 4 kts 76°
2026-04-26 14:34 43.53774 16.29821 62 ft 1 kts 53°
2026-04-26 14:34 43.53772 16.29817 62 ft 0 kts 53°
2026-04-26 14:36 43.53797 16.29863 60 ft 10 kts 53°
2026-04-26 14:36 43.53839 16.29940 66 ft 10 kts 53°
2026-04-26 14:37 43.53879 16.30012 63 ft 9 kts 53°
2026-04-26 14:37 43.53927 16.30067 63 ft 10 kts 19°
2026-04-26 14:37 43.54018 16.30105 62 ft 17 kts 20°
2026-04-26 14:37 43.54117 16.30199 59 ft 19 kts 52°
2026-04-26 14:38 43.54203 16.30353 51 ft 20 kts 52°
2026-04-26 14:38 43.54286 16.30500 56 ft 20 kts 53°
2026-04-26 14:38 43.54373 16.30658 53 ft 21 kts 52°
2026-04-26 14:38 43.54430 16.30762 52 ft 21 kts 53°
2026-04-26 14:39 43.54535 16.30954 52 ft 17 kts 60°
2026-04-26 14:39 43.54552 16.31050 53 ft 6 kts 64°
2026-04-26 14:39 43.54571 16.31017 53 ft 9 kts 234°
2026-04-26 14:39 43.54553 16.30986 52 ft 0 kts 233°
2026-04-26 14:40 43.54502 16.30892 50 ft 46 kts 233°
2026-04-26 14:40 43.54162 16.30279 57 ft 113 kts 232°
2026-04-26 14:40 43.53598 16.29240 321 ft 143 kts 233°
2026-04-26 14:40 43.53012 16.28156 1095 ft 143 kts 233°
2026-04-26 14:41 43.52393 16.27039 1727 ft 156 kts 234°
2026-04-26 14:41 43.51665 16.25744 2096 ft 182 kts 233°
2026-04-26 14:41 43.50831 16.24264 2609 ft 208 kts 233°
2026-04-26 14:41 43.49894 16.22594 3149 ft 232 kts 232°
2026-04-26 14:42 43.48820 16.20776 3790 ft 256 kts 229°
2026-04-26 14:42 43.47626 16.18891 4661 ft 265 kts 227°
2026-04-26 14:42 43.46382 16.16966 5584 ft 273 kts 226°
2026-04-26 14:42 43.45100 16.14985 6519 ft 281 kts 227°
2026-04-26 14:43 43.43713 16.13064 7474 ft 286 kts 213°
2026-04-26 14:43 43.41854 16.12162 8421 ft 287 kts 180°
2026-04-26 14:43 43.39930 16.12753 9337 ft 288 kts 148°
2026-04-26 14:43 43.38524 16.14669 10200 ft 289 kts 116°
2026-04-26 14:44 43.38077 16.17329 11012 ft 290 kts 84°
2026-04-26 14:44 43.38731 16.19924 11825 ft 292 kts 52°
2026-04-26 14:44 43.40286 16.21697 12592 ft 299 kts 27°
2026-04-26 14:44 43.42205 16.23062 12923 ft 323 kts 32°
2026-04-26 14:45 43.43897 16.25247 13185 ft 347 kts 54°
2026-04-26 14:45 43.44628 16.27230 13522 ft 357 kts 71°
2026-04-26 14:45 43.44786 16.31769 14387 ft 369 kts 103°
2026-04-26 14:45 43.43686 16.34973 15083 ft 376 kts 127°
2026-04-26 14:46 43.41986 16.37732 15805 ft 379 kts 128°
2026-04-26 14:46 43.40405 16.40648 16543 ft 382 kts 122°
2026-04-26 14:46 43.39111 16.43845 17257 ft 384 kts 113°
2026-04-26 14:46 43.38211 16.47307 17964 ft 386 kts 105°
2026-04-26 14:47 43.37472 16.50878 18647 ft 390 kts 105°
2026-04-26 14:47 43.36736 16.54475 19252 ft 393 kts 104°
2026-04-26 14:47 43.35992 16.58109 19849 ft 396 kts 105°
2026-04-26 14:47 43.35034 16.61672 20430 ft 401 kts 114°
2026-04-26 14:48 43.33635 16.65006 21012 ft 405 kts 122°
2026-04-26 14:48 43.32098 16.68270 21590 ft 408 kts 122°
2026-04-26 14:48 43.30550 16.71560 22158 ft 412 kts 122°
2026-04-26 14:48 43.28994 16.74869 22712 ft 415 kts 122°
2026-04-26 14:49 43.27427 16.78210 23249 ft 418 kts 121°
2026-04-26 14:49 43.25847 16.81580 23779 ft 421 kts 121°
2026-04-26 14:49 43.24254 16.84969 24205 ft 425 kts 122°
2026-04-26 14:49 43.22664 16.88341 24617 ft 428 kts 122°
2026-04-26 14:50 43.21042 16.91777 25020 ft 431 kts 122°
2026-04-26 14:50 43.19403 16.95239 25420 ft 435 kts 122°
2026-04-26 14:50 43.17750 16.98723 25812 ft 438 kts 122°
2026-04-26 14:50 43.16083 17.02239 26200 ft 442 kts 122°
2026-04-26 14:51 43.14406 17.05778 26587 ft 445 kts 122°
2026-04-26 14:51 43.12844 17.09454 26971 ft 448 kts 117°
2026-04-26 14:51 43.11389 17.13236 27360 ft 451 kts 117°
2026-04-26 14:51 43.09920 17.17042 27739 ft 454 kts 117°
2026-04-26 14:52 43.08436 17.20881 28104 ft 457 kts 117°
2026-04-26 14:52 43.06943 17.24734 28467 ft 460 kts 117°
2026-04-26 14:52 43.05436 17.28614 28807 ft 463 kts 117°
2026-04-26 14:52 43.03919 17.32517 29139 ft 466 kts 118°
2026-04-26 14:53 43.02387 17.36440 29473 ft 469 kts 118°
2026-04-26 14:53 43.00844 17.40387 29796 ft 472 kts 118°
2026-04-26 14:53 42.99291 17.44356 30113 ft 475 kts 118°
2026-04-26 14:53 42.97726 17.48351 30381 ft 478 kts 118°
2026-04-26 14:54 42.96154 17.52356 30737 ft 478 kts 118°
2026-04-26 14:54 42.94585 17.56351 31181 ft 477 kts 118°
2026-04-26 14:54 42.93020 17.60333 31580 ft 476 kts 118°
2026-04-26 14:54 42.91458 17.64310 32004 ft 475 kts 118°
2026-04-26 14:55 42.89897 17.68274 32432 ft 474 kts 118°
2026-04-26 14:55 42.88863 17.70890 32719 ft 473 kts 118°
2026-04-26 14:55 42.87300 17.74835 33136 ft 472 kts 118°
2026-04-26 14:55 42.85742 17.78765 33562 ft 471 kts 118°
2026-04-26 14:56 42.84183 17.82697 33981 ft 470 kts 118°
2026-04-26 14:56 42.82630 17.86610 34361 ft 470 kts 118°
2026-04-26 14:56 42.81078 17.90519 34708 ft 469 kts 118°
2026-04-26 14:56 42.79526 17.94425 34988 ft 470 kts 118°
2026-04-26 14:57 42.77973 17.98340 35069 ft 469 kts 118°
2026-04-26 14:57 42.74865 18.06134 35074 ft 468 kts 118°
2026-04-26 14:58 42.71749 18.13914 35078 ft 468 kts 119°
2026-04-26 14:58 42.68624 18.21699 35081 ft 469 kts 119°
2026-04-26 14:59 42.65492 18.29479 35083 ft 470 kts 119°
2026-04-26 14:59 42.62378 18.37211 35081 ft 470 kts 119°
2026-04-26 15:00 42.59237 18.44984 35075 ft 470 kts 119°
2026-04-26 15:00 42.56084 18.52748 35067 ft 470 kts 119°
2026-04-26 15:01 42.52924 18.60505 35065 ft 470 kts 119°
2026-04-26 15:01 42.49760 18.68274 35067 ft 471 kts 119°
2026-04-26 15:02 42.46594 18.76043 35069 ft 471 kts 120°
2026-04-26 15:02 42.43402 18.83809 35072 ft 472 kts 120°
2026-04-26 15:03 42.40207 18.91570 35068 ft 472 kts 120°
2026-04-26 15:03 42.37010 18.99335 35027 ft 472 kts 120°
2026-04-26 15:04 42.33808 19.07094 35017 ft 472 kts 120°
2026-04-26 15:04 42.30597 19.14839 35015 ft 473 kts 120°
2026-04-26 15:05 42.27380 19.22590 35012 ft 474 kts 120°
2026-04-26 15:05 42.24148 19.30348 35014 ft 474 kts 120°
2026-04-26 15:06 42.20549 19.37766 35021 ft 473 kts 127°
2026-04-26 15:06 42.16708 19.44897 35024 ft 473 kts 127°
2026-04-26 15:07 42.10907 19.55676 35036 ft 474 kts 127°
2026-04-26 15:07 42.07034 19.62854 35039 ft 474 kts 127°
2026-04-26 15:08 42.03146 19.70027 35043 ft 474 kts 127°
2026-04-26 15:08 41.99253 19.77196 35046 ft 474 kts 127°
2026-04-26 15:09 41.95870 19.84813 35046 ft 475 kts 120°
2026-04-26 15:09 41.92628 19.92556 35047 ft 475 kts 120°
2026-04-26 15:10 41.89922 19.98972 35051 ft 476 kts 120°
2026-04-26 15:10 41.86113 20.08008 35059 ft 476 kts 120°
2026-04-26 15:11 41.82879 20.15694 35068 ft 476 kts 120°
2026-04-26 15:11 41.79613 20.23414 35068 ft 476 kts 120°
2026-04-26 15:12 41.76333 20.31125 35067 ft 476 kts 120°
2026-04-26 15:12 41.73051 20.38831 35072 ft 476 kts 120°
2026-04-26 15:13 41.69768 20.46528 35068 ft 476 kts 120°
2026-04-26 15:13 41.66482 20.54218 35058 ft 476 kts 120°
2026-04-26 15:14 41.63229 20.61931 35050 ft 476 kts 120°
2026-04-26 15:14 41.60005 20.69666 35047 ft 476 kts 120°
2026-04-26 15:15 41.56769 20.77388 35038 ft 477 kts 120°
2026-04-26 15:15 41.53536 20.85042 35025 ft 476 kts 120°
2026-04-26 15:16 41.50270 20.92746 35030 ft 477 kts 120°
2026-04-26 15:16 41.47004 21.00453 35027 ft 477 kts 120°
2026-04-26 15:17 41.44265 21.06912 35023 ft 478 kts 120°
2026-04-26 15:17 41.40446 21.15847 35021 ft 478 kts 120°
2026-04-26 15:18 41.37158 21.23544 35021 ft 478 kts 120°
2026-04-26 15:18 41.33864 21.31235 35019 ft 479 kts 120°
2026-04-26 15:19 41.30562 21.38934 35023 ft 479 kts 120°
2026-04-26 15:19 41.27246 21.46630 35027 ft 480 kts 120°
2026-04-26 15:20 41.23925 21.54322 35028 ft 480 kts 120°
2026-04-26 15:20 41.20594 21.62007 35022 ft 480 kts 120°
2026-04-26 15:21 41.17258 21.69679 35019 ft 480 kts 120°
2026-04-26 15:21 41.13922 21.77354 35017 ft 481 kts 121°
2026-04-26 15:22 41.10574 21.85038 35014 ft 481 kts 121°
2026-04-26 15:22 41.07144 21.92583 35007 ft 480 kts 127°
2026-04-26 15:23 41.03120 21.99646 35008 ft 480 kts 128°
2026-04-26 15:23 40.99099 22.06715 35001 ft 481 kts 128°
2026-04-26 15:24 40.95078 22.13785 34997 ft 481 kts 128°
2026-04-26 15:24 40.91046 22.20849 34983 ft 481 kts 128°
2026-04-26 15:25 40.87690 22.26710 34977 ft 481 kts 128°
2026-04-26 15:25 40.82957 22.34933 34963 ft 481 kts 128°
2026-04-26 15:26 40.78906 22.41978 34963 ft 482 kts 128°
2026-04-26 15:26 40.74847 22.49024 34960 ft 482 kts 128°
2026-04-26 15:27 40.70777 22.56063 34963 ft 483 kts 128°
2026-04-26 15:27 40.66695 22.63094 34958 ft 483 kts 128°
2026-04-26 15:28 40.62630 22.70085 34963 ft 484 kts 128°
2026-04-26 15:28 40.58544 22.77114 34964 ft 484 kts 128°
2026-04-26 15:29 40.54441 22.84142 34865 ft 485 kts 128°
2026-04-26 15:29 40.50325 22.91167 34175 ft 486 kts 128°
2026-04-26 15:30 40.45661 22.97652 31738 ft 488 kts 143°
2026-04-26 15:30 40.42857 23.00127 30674 ft 484 kts 153°
2026-04-26 15:30 40.39806 23.02044 29362 ft 490 kts 161°
2026-04-26 15:31 40.36602 23.03621 28229 ft 490 kts 161°
2026-04-26 15:31 40.30400 23.06699 26865 ft 471 kts 161°
2026-04-26 15:31 40.27347 23.08224 26110 ft 467 kts 161°
2026-04-26 15:32 40.22323 23.10730 24898 ft 462 kts 161°
2026-04-26 15:32 40.18359 23.12696 23940 ft 458 kts 161°
2026-04-26 15:32 40.15388 23.14163 23157 ft 455 kts 160°
2026-04-26 15:33 40.12439 23.15616 22466 ft 450 kts 160°
2026-04-26 15:33 40.09525 23.17054 21816 ft 445 kts 160°
2026-04-26 15:33 40.06649 23.18475 21194 ft 439 kts 160°
2026-04-26 15:33 40.03812 23.19879 20587 ft 434 kts 160°
2026-04-26 15:34 40.01008 23.21261 20021 ft 428 kts 160°
2026-04-26 15:34 39.98240 23.22620 19464 ft 423 kts 160°
2026-04-26 15:34 39.95501 23.23962 18915 ft 418 kts 160°
2026-04-26 15:34 39.92797 23.25290 18371 ft 414 kts 160°
2026-04-26 15:35 39.90120 23.26609 17779 ft 409 kts 159°
2026-04-26 15:35 39.87476 23.27912 17232 ft 404 kts 159°
2026-04-26 15:35 39.84858 23.29202 16682 ft 400 kts 159°
2026-04-26 15:35 39.82264 23.30477 16116 ft 397 kts 159°
2026-04-26 15:36 39.79683 23.31742 15548 ft 395 kts 159°
2026-04-26 15:36 39.77156 23.32976 14971 ft 393 kts 159°
2026-04-26 15:36 39.74599 23.34221 14378 ft 392 kts 159°
2026-04-26 15:36 39.72055 23.35460 13786 ft 391 kts 159°
2026-04-26 15:37 39.69513 23.36697 13127 ft 389 kts 159°
2026-04-26 15:37 39.66989 23.37927 12514 ft 386 kts 159°
2026-04-26 15:37 39.64484 23.39147 11894 ft 383 kts 159°
2026-04-26 15:37 39.61996 23.40357 11246 ft 381 kts 159°
2026-04-26 15:38 39.59525 23.41555 10707 ft 376 kts 159°
2026-04-26 15:38 39.57170 23.42696 10534 ft 346 kts 159°
2026-04-26 15:38 39.55006 23.43743 10391 ft 319 kts 159°
2026-04-26 15:38 39.52968 23.44733 10067 ft 308 kts 159°
2026-04-26 15:39 39.50978 23.45700 9890 ft 305 kts 159°
2026-04-26 15:39 39.48999 23.46659 9768 ft 303 kts 160°
2026-04-26 15:39 39.47027 23.47616 9628 ft 303 kts 159°
2026-04-26 15:39 39.45722 23.48250 9540 ft 302 kts 160°
2026-04-26 15:40 39.43086 23.49525 9152 ft 301 kts 160°
2026-04-26 15:40 39.41127 23.50467 8747 ft 300 kts 160°
2026-04-26 15:40 39.39178 23.51406 8357 ft 298 kts 160°
2026-04-26 15:40 39.37239 23.52343 7948 ft 297 kts 160°
2026-04-26 15:41 39.35307 23.53278 7561 ft 296 kts 160°
2026-04-26 15:41 39.33386 23.54207 7162 ft 294 kts 160°
2026-04-26 15:41 39.31498 23.55118 6769 ft 293 kts 160°
2026-04-26 15:41 39.29568 23.56048 6362 ft 292 kts 160°
2026-04-26 15:42 39.27698 23.56947 5967 ft 290 kts 160°
2026-04-26 15:42 39.25816 23.57853 5579 ft 287 kts 160°
2026-04-26 15:42 39.23949 23.58751 5197 ft 285 kts 160°
2026-04-26 15:42 39.22101 23.59641 4819 ft 283 kts 160°
2026-04-26 15:43 39.20261 23.60511 4427 ft 281 kts 163°
2026-04-26 15:43 39.18350 23.60873 4071 ft 277 kts 182°
2026-04-26 15:43 39.14786 23.59434 4006 ft 263 kts 209°
2026-04-26 15:44 39.13212 23.58407 3986 ft 246 kts 209°
2026-04-26 15:44 39.10187 23.56437 3354 ft 239 kts 208°
2026-04-26 15:44 39.08740 23.55498 3073 ft 228 kts 208°
2026-04-26 15:45 39.05959 23.53691 2537 ft 222 kts 207°
2026-04-26 15:45 39.04583 23.52793 2283 ft 221 kts 207°
2026-04-26 15:46 39.02198 23.50532 1925 ft 208 kts 247°
2026-04-26 15:46 39.02022 23.48788 1878 ft 191 kts 283°
2026-04-26 15:46 39.02572 23.47386 1854 ft 165 kts 314°
2026-04-26 15:46 39.02841 23.47070 1835 ft 158 kts 324°
2026-04-26 15:47 39.04474 23.46485 1748 ft 144 kts
2026-04-26 15:47 39.06366 23.47023 1656 ft 136 kts 12°
2026-04-26 15:47 39.07280 23.47290 1617 ft 134 kts 13°
2026-04-26 15:48 39.08191 23.47555 1505 ft 135 kts 13°
2026-04-26 15:48 39.09100 23.47818 1332 ft 134 kts 12°
2026-04-26 15:48 39.10008 23.48066 1152 ft 134 kts
2026-04-26 15:48 39.10935 23.48217 988 ft 134 kts
2026-04-26 15:49 39.11874 23.48264 808 ft 136 kts
2026-04-26 15:49 39.12822 23.48317 636 ft 136 kts
2026-04-26 15:49 39.13766 23.48502 485 ft 138 kts 16°
2026-04-26 15:49 39.14647 23.48956 383 ft 136 kts 25°
2026-04-26 15:50 39.15521 23.49388 257 ft 135 kts 17°
2026-04-26 15:50 39.16403 23.49772 136 ft 133 kts 19°
2026-04-26 15:50 39.16975 23.50038 63 ft 130 kts 19°
2026-04-26 15:50 39.17745 23.50381 39 ft 91 kts 19°
2026-04-26 15:51 39.18109 23.50544 50 ft 41 kts 19°
2026-04-26 15:51 39.18330 23.50646 58 ft 29 kts 17°
2026-04-26 15:51 39.18471 23.50720 55 ft 16 kts 46°
2026-04-26 15:51 39.18496 23.50703 60 ft 10 kts 197°
2026-04-26 15:52 39.18429 23.50687 61 ft 10 kts 197°
2026-04-26 15:52 39.18352 23.50653 57 ft 14 kts 199°
2026-04-26 15:52 39.18236 23.50601 56 ft 21 kts 198°
2026-04-26 15:52 39.18145 23.50560 52 ft 20 kts 199°
2026-04-26 15:53 39.17968 23.50479 45 ft 19 kts 200°
2026-04-26 15:53 39.17926 23.50355 41 ft 13 kts 271°
2026-04-26 15:53 39.17949 23.50257 39 ft 0 kts 289°